This demonstration page uses our WeatherBlox Daily Observations layout. Learn more.

Left ArrowRight Arrow

39.51506, -84.39828

Hourly Observations for June 9, 2016

Temp ( °F °C ) Dew Point ( °F °C ) Humidity (%) Winds ( mph kmh ) Pressure ( in mb ) Visibility ( mi km ) Precip ( " mm )
12:15 am 00:15 Clear 58 14.2 47 8.6 69 69 N N/A 30.03 1017 10 16 N/A
12:35 am 00:35 Clear 57 13.8 47 8.2 69 69 N N/A 30.03 1017 10 16 N/A
12:55 am 00:55 Clear 55 12.5 47 8.3 76 76 N N/A 30.03 1017 10 16 N/A
1:15 am 01:15 Clear 55 12.5 47 8.1 75 75 N N/A 30.03 1017 10 16 N/A
1:35 am 01:35 Clear 55 12.5 47 8.4 76 76 N N/A 30.03 1017 10 16 N/A
1:55 am 01:55 Clear 55 12.5 47 8.5 77 77 N N/A 30.06 1018 10 16 N/A
2:15 am 02:15 Clear 55 12.5 47 8.6 77 77 N N/A 30.06 1018 10 16 N/A
2:35 am 02:35 Clear 54 12.1 47 8.1 77 77 N N/A 30.06 1018 10 16 N/A
2:55 am 02:55 Clear 52 11 46 7.5 79 79 N N/A 30.06 1018 10 16 N/A
3:15 am 03:15 Clear 52 11 46 7.5 79 79 N N/A 30.06 1018 10 16 N/A
3:35 am 03:35 Clear 49 9.6 43 6.3 80 80 N N/A 30.06 1018 10 16 N/A
3:55 am 03:55 Clear 50 10 43 6.2 77 77 N N/A 30.06 1018 10 16 N/A
4:15 am 04:15 Clear 49 9.6 43 6 78 78 N N/A 30.06 1018 10 16 N/A
4:35 am 04:35 Clear 49 9.6 43 6.1 79 79 N N/A 30.06 1018 10 16 N/A
4:55 am 04:55 Clear 49 9.6 43 6.2 80 80 N N/A 30.06 1018 10 16 N/A
5:15 am 05:15 Clear 49 9.6 43 6.2 80 80 N N/A 30.06 1018 10 16 N/A
5:35 am 05:35 Clear 49 9.6 43 6.3 80 80 N N/A 30.06 1018 10 16 N/A
5:55 am 05:55 Clear 49 9.6 44 6.4 81 81 N N/A 30.09 1019 10 16 N/A
6:15 am 06:15 Sunny 49 9.6 44 6.4 81 81 N N/A 30.09 1019 10 16 N/A
6:35 am 06:35 Sunny 49 9.6 44 6.4 81 81 N N/A 30.09 1019 10 16 N/A
6:55 am 06:55 Sunny 49 9.6 44 6.4 81 81 N N/A 30.09 1019 10 16 N/A
7:15 am 07:15 Sunny 52 11 46 7.5 79 79 N N/A 30.12 1020 10 16 N/A
7:35 am 07:35 Sunny 55 12.5 48 8.7 78 78 N N/A 30.12 1020 10 16 N/A
7:55 am 07:55 Sunny 55 12.9 48 8.8 76 76 N N/A 30.12 1020 10 16 N/A
8:15 am 08:15 Sunny 57 13.9 48 9 73 73 N N/A 30.12 1020 10 16 N/A
8:35 am 08:35 Sunny 60 15.3 48 8.7 65 65 N N/A 30.12 1020 10 16 N/A
8:55 am 08:55 Sunny 62 16.6 46 7.7 56 56 N N/A 30.09 1019 10 16 N/A
9:15 am 09:15 Sunny 64 18 43 6 46 46 N N/A 30.09 1019 10 16 N/A
9:35 am 09:35 Sunny 68 20.2 42 5.8 39 39 N N/A 30.09 1019 10 16 N/A
9:55 am 09:55 Sunny 69 20.8 37 3 31 31 N N/A 30.09 1019 10 16 N/A
10:15 am 10:15 Sunny 69 20.8 33 0.4 26 26 N N/A 30.09 1019 10 16 N/A
10:35 am 10:35 Sunny 70 21 32 undefined 25 25 N N/A 30.09 1019 10 16 N/A
10:55 am 10:55 Sunny 72 22 31 -0.3 23 23 N N/A 30.09 1019 10 16 N/A
11:15 am 11:15 Sunny 74 23.6 34 1.3 23 23 N N/A 30.09 1019 10 16 N/A
11:35 am 11:35 Sunny 74 23.6 40 4.4 29 29 SSW 5 7 30.09 1019 10 16 N/A
11:55 am 11:55 Sunny 74 23.6 40 4.3 29 29 N N/A 30.09 1019 10 16 N/A
12:15 pm 12:15 Sunny 74 23.6 40 4.6 29 29 N N/A 30.09 1019 10 16 N/A
12:35 pm 12:35 Sunny 74 23.6 37 2.6 25 25 N N/A 30.09 1019 10 16 N/A
12:55 pm 12:55 Sunny 77 25.1 41 4.9 27 27 WSW 6 9 30.09 1019 10 16 N/A
1:15 pm 13:15 Sunny 77 25.1 41 5.1 28 28 W 6 9 30.09 1019 10 16 N/A
1:35 pm 13:35 Sunny 78 25.6 41 4.8 26 26 WNW 5 7 30.06 1018 10 16 N/A
1:55 pm 13:55 Mostly Cloudy 77 25.1 40 4.5 26 26 W 3 6 30.06 1018 10 16 N/A
2:15 pm 14:15 Partly Cloudy 77 25.2 35 1.8 22 22 N N/A 30.06 1018 10 16 N/A
2:35 pm 14:35 Sunny 80 26.4 42 5.7 27 27 SW 6 9 30.06 1018 10 16 N/A
2:55 pm 14:55 Partly Cloudy 77 25.1 39 3.9 25 25 SW 6 9 30.03 1017 10 16 N/A
3:15 pm 15:15 Mostly Cloudy 77 25.1 38 3.4 24 24 SSW 6 9 30.03 1017 10 16 N/A
3:35 pm 15:35 Partly Cloudy 78 25.4 37 2.5 23 23 N N/A 30.03 1017 10 16 N/A
3:55 pm 15:55 Sunny 80 26.5 40 4.2 24 24 SW 5 7 30.03 1017 10 16 N/A
4:15 pm 16:15 Sunny 80 26.5 39 4 23 23 WSW 5 7 30.03 1017 10 16 N/A
4:35 pm 16:35 Sunny 81 27.2 36 2.3 20 20 SW 5 7 30.00 1016 10 16 N/A
4:55 pm 16:55 Sunny 81 27.1 35 1.9 20 20 SSW 6 9 30.00 1016 10 16 N/A
5:15 pm 17:15 Sunny 81 27.1 35 1.6 19 19 WSW 6 9 30.00 1016 10 16 N/A
5:35 pm 17:35 Sunny 81 27.2 33 0.5 18 18 SE 3 6 30.00 1016 10 16 N/A
5:55 pm 17:55 Sunny 81 27.2 36 2.2 20 20 SSW 5 7 30.00 1016 10 16 N/A
6:15 pm 18:15 Sunny 81 27.1 36 2.3 20 20 N N/A 30.00 1016 10 16 N/A
6:35 pm 18:35 Partly Cloudy 80 26.5 44 6.5 28 28 SSW 7 11 29.97 1015 10 16 N/A
6:55 pm 18:55 Sunny 80 26.5 39 3.7 23 23 SW 7 11 29.97 1015 10 16 N/A
7:15 pm 19:15 Sunny 80 26.5 44 6.8 29 29 SSW 8 13 29.97 1015 10 16 N/A
7:35 pm 19:35 Sunny 80 26.5 42 5.8 27 27 SW 7 11 29.97 1015 10 16 N/A
7:55 pm 19:55 Sunny 77 25.1 44 6.9 31 31 SSW 7 11 29.97 1015 10 16 N/A
8:15 pm 20:15 Sunny 74 23.6 47 8.1 37 37 SW 6 9 29.97 1015 10 16 N/A
8:35 pm 20:35 Sunny 74 23.6 53 11.5 47 47 SW 3 6 30.00 1016 10 16 N/A
8:55 pm 20:55 Sunny 72 22.3 55 12.6 54 54 N N/A 29.97 1015 10 16 N/A
9:15 pm 21:15 Clear 69 20.8 54 12.4 59 59 N N/A 29.97 1015 10 16 N/A
9:35 pm 21:35 Clear 69 20.8 54 12.2 58 58 N N/A 29.97 1015 10 16 N/A
9:55 pm 21:55 Clear 69 20.8 58 14.5 67 67 N N/A 29.97 1015 10 16 N/A
10:15 pm 22:15 Clear 69 20.5 57 13.8 66 66 N N/A 30.00 1016 10 16 N/A
10:35 pm 22:35 Clear 67 19.5 55 12.7 65 65 N N/A 30.00 1016 10 16 N/A
10:55 pm 22:55 Clear 66 19.1 55 12.5 66 66 N N/A 30.00 1016 10 16 N/A
11:15 pm 23:15 Partly Cloudy 67 19.5 54 12.4 64 64 N N/A 30.03 1017 10 16 N/A
11:35 pm 23:35 Cloudy 67 19.5 58 14.4 73 73 N N/A 30.03 1017 10 16 N/A
11:55 pm 23:55 Mostly Cloudy 67 19.5 56 13.5 68 68 N N/A 30.03 1017 10 16 N/A

Powered by AerisWeather